When you browse on this site, cookies collect data to enhance your experience and personalize the content and advertising you see.
Visit our Privacy Policy to learn more. By continuing to use the site, you agree to this use of cookies and data.
  • Em Portugal
  • Lista de países
  • Para 7 dias
  • Temperatura da água
  • Mapa do tempo
  • Widgets de tempo
  • user-avatar
    Iniciar Sessão

    Previsão horária em Bejrut

    Hoje, 10 Abril, Sexta-feira

    Tempo Temperatura Precipitação Vento Pressão Humidade
    00:00 +13°C° 0.7 mm 5 m/s 754 mmHg 83%
    01:00 +13°C° 0.7 mm 5 m/s 753 mmHg 83%
    02:00 +13°C° 0 mm 5 m/s 753 mmHg 85%
    03:00 +13°C° 0.8 mm 5 m/s 753 mmHg 85%
    04:00 +13°C° 0.8 mm 4 m/s 753 mmHg 86%
    05:00 +13°C° 0.8 mm 4 m/s 753 mmHg 87%
    06:00 +14°C° 0.7 mm 5 m/s 753 mmHg 84%
    07:00 +15°C° 0.7 mm 5 m/s 753 mmHg 82%
    08:00 +15°C° 0 mm 5 m/s 753 mmHg 83%
    09:00 +16°C° 1 mm 5 m/s 753 mmHg 82%
    10:00 +16°C° 1 mm 5 m/s 753 mmHg 80%
    11:00 +16°C° 1 mm 5 m/s 753 mmHg 79%
    12:00 +17°C° 0.9 mm 5 m/s 753 mmHg 78%
    13:00 +17°C° 0.9 mm 5 m/s 753 mmHg 77%
    14:00 +17°C° 0.9 mm 5 m/s 753 mmHg 76%
    15:00 +16°C° 1.1 mm 5 m/s 753 mmHg 79%
    16:00 +16°C° 1.1 mm 5 m/s 753 mmHg 81%
    17:00 +15°C° 1.1 mm 5 m/s 753 mmHg 84%
    18:00 +15°C° 1.1 mm 4 m/s 753 mmHg 84%
    19:00 +15°C° 1.1 mm 4 m/s 753 mmHg 85%
    20:00 +15°C° 1.1 mm 4 m/s 754 mmHg 85%
    21:00 +15°C° 0.9 mm 4 m/s 754 mmHg 85%
    22:00 +15°C° 0.9 mm 4 m/s 754 mmHg 84%
    23:00 +15°C° 0.9 mm 4 m/s 754 mmHg 84%

    Amanhã, 11 Abril, Sábado

    Tempo Temperatura Precipitação Vento Pressão Humidade
    00:00 +14°C° 0.8 mm 4 m/s 754 mmHg 84%
    01:00 +14°C° 0.8 mm 4 m/s 754 mmHg 84%
    02:00 +14°C° 0.8 mm 4 m/s 754 mmHg 84%
    03:00 +14°C° 0.3 mm 4 m/s 754 mmHg 85%
    04:00 +14°C° 0.3 mm 4 m/s 754 mmHg 87%
    05:00 +14°C° 0.3 mm 3 m/s 754 mmHg 88%
    06:00 +15°C° 0.1 mm 4 m/s 754 mmHg 85%
    07:00 +15°C° 0.1 mm 4 m/s 755 mmHg 81%
    08:00 +16°C° 0.1 mm 5 m/s 755 mmHg 78%
    09:00 +17°C° 0.2 mm 5 m/s 755 mmHg 76%
    10:00 +17°C° 0.2 mm 5 m/s 755 mmHg 75%
    11:00 +19°C° 0.2 mm 5 m/s 756 mmHg 74%
    12:00 +19°C° 0.1 mm 5 m/s 756 mmHg 75%
    13:00 +19°C° 0.1 mm 5 m/s 756 mmHg 76%
    14:00 +19°C° 0.1 mm 5 m/s 755 mmHg 77%
    15:00 +17°C° 0 mm 5 m/s 756 mmHg 76%
    16:00 +18°C° 0 mm 4 m/s 756 mmHg 76%
    17:00 +18°C° 0 mm 4 m/s 756 mmHg 75%
    18:00 +17°C° 0 mm 4 m/s 756 mmHg 75%
    19:00 +16°C° 0 mm 3 m/s 756 mmHg 75%
    20:00 +16°C° 0 mm 3 m/s 757 mmHg 75%
    21:00 +16°C° 0 mm 3 m/s 757 mmHg 74%
    22:00 +14°C° 0 mm 3 m/s 757 mmHg 74%
    23:00 +15°C° 0 mm 2 m/s 757 mmHg 74%

    Depois de amanhã, 12 Abril, Domingo

    Tempo Temperatura Precipitação Vento Pressão Humidade
    00:00 +15°C° 0 mm 2 m/s 757 mmHg 73%
    01:00 +14°C° 0 mm 2 m/s 757 mmHg 72%
    02:00 +14°C° 0 mm 2 m/s 757 mmHg 71%
    03:00 +14°C° 0 mm 2 m/s 757 mmHg 72%
    04:00 +14°C° 0 mm 2 m/s 757 mmHg 72%
    05:00 +14°C° 0 mm 2 m/s 757 mmHg 72%
    06:00 +15°C° 0 mm 2 m/s 757 mmHg 67%
    07:00 +17°C° 0 mm 2 m/s 758 mmHg 62%
    08:00 +18°C° 0 mm 3 m/s 758 mmHg 58%
    09:00 +19°C° 0 mm 3 m/s 758 mmHg 60%
    10:00 +19°C° 0 mm 3 m/s 758 mmHg 63%
    11:00 +20°C° 0 mm 4 m/s 758 mmHg 66%
    12:00 +20°C° 0 mm 3 m/s 758 mmHg 67%
    13:00 +20°C° 0 mm 3 m/s 758 mmHg 68%
    14:00 +20°C° 0 mm 3 m/s 758 mmHg 68%
    15:00 +20°C° 0 mm 2 m/s 757 mmHg 69%
    16:00 +19°C° 0 mm 2 m/s 757 mmHg 69%
    17:00 +20°C° 0 mm 1 m/s 757 mmHg 70%
    18:00 +19°C° 0 mm 1 m/s 758 mmHg 73%
    19:00 +16°C° 0 mm 0 m/s 758 mmHg 76%
    20:00 +15°C° 0 mm 0 m/s 758 mmHg 79%
    21:00 +15°C° 0 mm 0 m/s 758 mmHg 79%
    22:00 +15°C° 0 mm 0 m/s 758 mmHg 79%
    23:00 +15°C° 0 mm 0 m/s 758 mmHg 79%

    13 Abril, Segunda-feira

    Tempo Temperatura Precipitação Vento Pressão Humidade
    00:00 +16°C° 0 mm 1 m/s 758 mmHg 78%
    01:00 +16°C° 0 mm 1 m/s 758 mmHg 77%
    02:00 +15°C° 0 mm 1 m/s 758 mmHg 76%
    03:00 +15°C° 0 mm 1 m/s 758 mmHg 76%
    04:00 +15°C° 0 mm 1 m/s 757 mmHg 75%
    05:00 +15°C° 0 mm 1 m/s 757 mmHg 74%
    06:00 +18°C° 0 mm 1 m/s 758 mmHg 69%
    07:00 +19°C° 0 mm 1 m/s 758 mmHg 64%
    08:00 +21°C° 0 mm 1 m/s 758 mmHg 59%
    09:00 +21°C° 0 mm 1 m/s 758 mmHg 57%
    10:00 +22°C° 0 mm 1 m/s 758 mmHg 55%
    11:00 +23°C° 0 mm 2 m/s 758 mmHg 53%
    12:00 +23°C° 0 mm 2 m/s 758 mmHg 54%
    13:00 +22°C° 0 mm 3 m/s 758 mmHg 54%
    14:00 +22°C° 0 mm 3 m/s 757 mmHg 54%
    15:00 +22°C° 0 mm 3 m/s 757 mmHg 55%
    16:00 +21°C° 0 mm 3 m/s 757 mmHg 56%
    17:00 +21°C° 0 mm 3 m/s 757 mmHg 58%
    18:00 +20°C° 0 mm 3 m/s 757 mmHg 61%
    19:00 +19°C° 0 mm 3 m/s 757 mmHg 64%
    20:00 +19°C° 0 mm 3 m/s 757 mmHg 66%
    21:00 +18°C° 0 mm 4 m/s 757 mmHg 65%
    22:00 +17°C° 0 mm 5 m/s 757 mmHg 64%
    23:00 +17°C° 0 mm 5 m/s 757 mmHg 63%

    14 Abril, Terça-feira

    Tempo Temperatura Precipitação Vento Pressão Humidade
    00:00 +17°C° 0 mm 5 m/s 757 mmHg 64%
    01:00 +17°C° 0 mm 5 m/s 756 mmHg 64%
    02:00 +18°C° 0 mm 4 m/s 756 mmHg 65%
    03:00 +17°C° 0 mm 4 m/s 756 mmHg 65%
    04:00 +17°C° 0 mm 4 m/s 756 mmHg 65%
    05:00 +17°C° 0 mm 3 m/s 756 mmHg 65%
    06:00 +18°C° 0 mm 3 m/s 756 mmHg 61%
    07:00 +20°C° 0 mm 3 m/s 757 mmHg 56%
    08:00 +22°C° 0 mm 3 m/s 757 mmHg 52%
    09:00 +22°C° 0 mm 3 m/s 757 mmHg 51%
    10:00 +24°C° 0 mm 3 m/s 756 mmHg 50%
    11:00 +24°C° 0 mm 3 m/s 756 mmHg 48%
    12:00 +25°C° 0 mm 3 m/s 756 mmHg 49%
    13:00 +25°C° 0 mm 4 m/s 756 mmHg 50%
    14:00 +25°C° 0 mm 4 m/s 756 mmHg 51%
    15:00 +24°C° 0 mm 3 m/s 756 mmHg 52%
    16:00 +24°C° 0 mm 3 m/s 756 mmHg 52%
    17:00 +22°C° 0 mm 3 m/s 755 mmHg 53%
    18:00 +21°C° 0 mm 2 m/s 756 mmHg 58%
    19:00 +20°C° 0 mm 2 m/s 756 mmHg 62%
    20:00 +19°C° 0 mm 2 m/s 757 mmHg 67%
    21:00 +19°C° 0 mm 2 m/s 757 mmHg 69%
    22:00 +18°C° 0 mm 2 m/s 757 mmHg 71%
    23:00 +19°C° 0 mm 1 m/s 757 mmHg 74%

    15 Abril, Quarta-feira

    Tempo Temperatura Precipitação Vento Pressão Humidade
    00:00 +18°C° 0 mm 1 m/s 757 mmHg 74%
    01:00 +18°C° 0 mm 1 m/s 757 mmHg 74%
    02:00 +16°C° 0 mm 0 m/s 757 mmHg 74%
    03:00 +16°C° 0 mm 1 m/s 757 mmHg 75%
    04:00 +16°C° 0 mm 2 m/s 757 mmHg 77%
    05:00 +16°C° 0 mm 2 m/s 758 mmHg 78%
    06:00 +17°C° 0 mm 3 m/s 758 mmHg 67%
    07:00 +19°C° 0 mm 3 m/s 758 mmHg 55%
    08:00 +20°C° 0 mm 4 m/s 758 mmHg 44%
    09:00 +20°C° 0 mm 4 m/s 758 mmHg 47%
    10:00 +21°C° 0 mm 4 m/s 758 mmHg 50%
    11:00 +21°C° 0 mm 5 m/s 758 mmHg 53%
    12:00 +21°C° 0 mm 4 m/s 758 mmHg 52%
    13:00 +21°C° 0 mm 4 m/s 758 mmHg 51%
    14:00 +21°C° 0 mm 4 m/s 758 mmHg 49%
    15:00 +21°C° 0 mm 4 m/s 757 mmHg 51%
    16:00 +20°C° 0 mm 3 m/s 757 mmHg 52%
    17:00 +19°C° 0 mm 3 m/s 757 mmHg 53%
    18:00 +18°C° 0 mm 3 m/s 757 mmHg 55%
    19:00 +18°C° 0 mm 3 m/s 757 mmHg 58%
    20:00 +17°C° 0 mm 3 m/s 757 mmHg 60%
    21:00 +17°C° 0 mm 3 m/s 757 mmHg 57%
    22:00 +16°C° 0 mm 3 m/s 757 mmHg 53%
    23:00 +15°C° 0 mm 4 m/s 757 mmHg 50%
    Mostrar mais